Regional Weather Roundup
Issued by NWS

Home | Current Version | Previous Version | Text Only | Print | Product List | Glossary On
Versions: 1 2 3 4 5 6 7 8 9 10 11 12 13 14 15 16 17 18 19 20 21 22 23 24 25 26 27 28 29 30 31 32 33 34 35 36 37 38 39 40 41 42 43 44 45 46 47 48 49 50
000
ASUS44 KEWX 230103
RWRTX
SOUTH TEXAS REGIONAL WEATHER ROUNDUP
NATIONAL WEATHER SERVICE AUSTIN/SAN ANTONIO TX
800 PM CDT SAT JUL 22 2017

NOTE: "FAIR" INDICATED FEW OR NO CLOUDS BELOW 12,000 FEET WITH NO
SIGNIFICANT WEATHER AND/OR OBSTRUCTIONS TO VISIBILITY.

* - THESE STATIONS ARE NOT NWS OR FAA STATIONS...AND ARE NOT SUBJECT
    TO NWS AND FAA QUALITY CONTROL.

TXZ171-172-183>190-230200-
TEXAS HILL COUNTRY AND EDWARDS PLATEAU

CITY           SKY/WX    TMP DP  RH WIND       PRES   REMARKS
JUNCTION       CLOUDY    95  61  32 S8        29.88R HX  95
*LLANO           N/A    N/A N/A N/A SE10      29.87
BURNET         CLEAR     95  58  28 SE9       29.89S HX  94
*HORSESHOE BAY CLEAR     95  60  31 SE8       29.86S HX  95
*KERRVILLE     CLEAR     94  64  37 SE8       29.90S HX  95
*FREDERICKSBRG CLEAR     93  56  28 SE6       29.90S HX  91
*ROCKSPRINGS   CLOUDY    93  61  33 S12       29.94S HX  93
*BOERNE STAGE  CLEAR     91  63  38 SE8       29.90S HX  92
*CASTROVILLE   CLEAR     97  58  27 SE9G17    29.85S HX  96
HONDO          CLEAR     97  63  32 SE12      29.84S HX  98
*UVALDE        CLEAR     97  62  31 SE8       29.84R HX  98
DEL RIO        CLEAR     98  63  31 SE9       29.80S HX 100
LAUGHLIN AFB   NOT AVBL
CARRIZO SPRGS  PTCLDY   100  59  25 SE9       29.79S HX 100
*EAGLE PASS    NOT AVBL
$$

TXZ173-191>194-202-209-217>225-228-230200-
CENTRAL AND SOUTH CENTRAL TEXAS

CITY           SKY/WX    TMP DP  RH WIND       PRES   REMARKS
GEORGETOWN     NOT AVBL
AUSTIN/BERGSTM PTCLDY    97  65  34 SE12      29.85R HX  99
AUSTIN/MABRY   PTCLDY    96  62  32 SE10      29.86S HX  97
*AUSTIN/EXEC     N/A     93  66  40 S6        29.86S HX  96
*LAGO VISTA    CLEAR     94  58  30 SE3       29.90R HX  92
SAN MARCOS     CLEAR     93  63  36 SE12      29.87R HX  94
NEW BRAUNFELS  CLEAR     94  67  41 S21G26    29.85R HX  97
RANDOLPH AFB   NOT AVBL
PT SAN ANTONIO NOT AVBL
SAN ANTONIO    PTCLDY    96  62  32 SE15      29.86R HX  97
STINSON FIELD  CLEAR     97  62  31 SE8       29.83R HX  98
*LA GRANGE     CLOUDY    92  73  53 SE12      29.86S HX 100
*GIDDINGS      CLOUDY    92  70  49 SE12G20   29.88S HX  97
*GONZALES      CLOUDY    92  72  52 S14       29.87R HX  99
$$

TXZ163>164-176>182-195>201-210>213-226-227-235-230200-
SOUTHEAST TEXAS

CITY           SKY/WX    TMP DP  RH WIND       PRES   REMARKS
COLLEGE STN    CLOUDY    85  71  63 SE18      29.88S HX  90
*BRYAN         CLOUDY    84  72  67 S12G20    29.91R THUNDER
*CALDWELL      NOT AVBL
*CROCKETT      CLOUDY    84  73  70 SE7       29.92R HX  91
*BRENHAM       CLOUDY    85  74  69 SE10      29.90S HX  93
HUNTSVILLE     PTCLDY    86  68  54 S7        29.91S
CONROE         CLOUDY    79  69  71 SE6       29.91F
HOUSTON BUSH   CLOUDY    78  73  84 SW5       29.91S
HOUSTON HOBBY  CLOUDY    87  74  64 S6        29.91S HX  95
*HOUSTON SW AP CLOUDY    82  74  77 S5        29.92S
PEARLAND       CLOUDY    87  75  67 S6        29.92S HX  96
HOUSTON HOOKS  CLOUDY    76  74  93 CALM      29.91F
ELLINGTON FLD  NOT AVBL
SUGAR LAND     LGT RAIN  83  78  85 S8        29.90F HX  93
*HOUSTON EXEC  CLOUDY    82  73  74 CALM      29.92F
*CLEVELAND MUN CLOUDY    83  76  79 SW6       29.92S HX  91
*WHARTON       CLOUDY    84  72  66 S8        29.92S
*COLUMBUS      FAIR      86  73  65 S12G17    29.91S HX  92
*EAGLE LAKE    CLOUDY    85  76  73 S8        29.90F HX  95
$$

TXZ214>216-236>238-230200-
THE UPPER TEXAS COAST

CITY           SKY/WX    TMP DP  RH WIND       PRES   REMARKS
*ORANGE        CLOUDY    78  76  96 CALM      29.95S
PORT ARTHUR    CLOUDY    78  77  96 CALM      29.92S
GALVESTON      CLEAR     85  76  74 S8        29.92F HX  94
ANGLETON       PTCLDY    84  76  76 S7        29.92S HX  93
*BAY CITY      CLOUDY    84  76  77 S6        29.92R HX  93
PALACIOS       CLOUDY    84  75  74 S8        29.92R HX  92
$$

TXZ229>234-239>247-230200-
TEXAS COASTAL BEND AND RIO GRANDE PLAINS

CITY           SKY/WX    TMP DP  RH WIND       PRES   REMARKS
VICTORIA       CLOUDY    87  75  67 S17       29.90R HX  96
*BEEVILLE      CLOUDY    88  76  67 SE16G22   29.88R HX  98
ROCKPORT       CLEAR     87  75  67 SE15G23   29.88S HX  96
*PORT ARANSAS  CLOUDY    85  76  75 S18       29.89R HX  94
*PORT LAVACA   CLOUDY    83  75  74 SE9       29.91R HX  91
*INGLESIDE     CLEAR     87  78  74 MISG      29.88R HX  99
CORPUS CHRISTI MOCLDY    86  76  71 SE20G28   29.87R HX  96
CORPUS NAS     PTCLDY    87  78  74 S22       29.88R HX 100
*ROBSTOWN      CLEAR     89  75  63 SE15G22   29.87S HX  98
ALICE          PTCLDY    89  74  60 SE21      29.85R HX  98
KINGSVILLE NAS MOCLDY    88  78  72 SE17G28   29.86R HX 101
COTULLA        PTCLDY    99  56  23 SE9       29.80S HX  97
*FAITH RANCH   CLEAR    100  57  23 SE9       29.80S HX  99
LAREDO         CLEAR    100  66  32 SE18      29.81F HX 104
$$

TXZ248>255-230200-
DEEP SOUTH TEXAS

CITY           SKY/WX    TMP DP  RH WIND       PRES   REMARKS
BROWNSVILLE    CLEAR     85  74  69 SE22      29.88S HX  92
PORT ISABEL    CLEAR     87  75  67 S20       29.87S HX  96
*SOUTH PADRE   NOT AVBL
HARLINGEN      CLEAR     89  72  56 S22       29.85R HX  96
*HEBBRONVILLE  CLEAR     94  64  36 SE16      29.85R HX  96
MCALLEN        CLEAR     92  68  45 SE21G29   29.85R HX  96
*WESLACO       CLEAR     90  69  51 S17G23    29.85R HX  94
FALFURRIAS     PTCLDY    94  67  41 SE14G21   29.84R HX  97
EDINBURG       CLEAR     93  67  42 SE20      29.85R HX  96
*ZAPATA        CLEAR     98  64  32 SE15G24   29.79R HX 100
$$

TXZ213>215-236>238-242>244-246-247-251-254-255-230200-
CMAN STATIONS

STATION/POSITION TIME  TEMP    WIND        PRES    WAVE
                       AIR SEA DIR/SP/G            HT/PER
                 (UTC) (F)     (DEG/KT/KT) (MB)    (FT/S)
SABINE PASS      0030   83 90  200/  7/ 12 1015.0
SEA RIM ST PARK  0000   84     190/ 10/ 12 1013.9
NORTH JETTY/GLS  0030      89  170/ 14/ 17 1012.7
EAGLE POINT      0030   86 90  220/ 13/ 16 1013.3
MORGANS POINT    0030   87 88  170/ 10/ 14 1012.9
MISSION/ARANSAS  0000          150/ 19     1012.0
PORT O`CONNOR    0030   85     170/ 17/ 20 1012.0
PORT ARANSAS     0000   85 88  140/ 21/ 23 1011.9
MALAQUITE BEACH  0030   85 88  130/ 23/ 27 1010.6
BAFFIN BAY       0030   85 88              1011.4
PORT ISABEL      0030   85 86              1011.9
$$

GMZ080-GMZ150>470-230200-
OFFSHORE BUOY REPORTS

STATION/POSITION TIME  TEMP    WIND        PRES    WAVE
                       AIR SEA DIR/SP/G            HT/PER
                 (UTC) (F)     (DEG/KT/KT) (MB)    (FT/S)
20 E GALVESTON   2350   83 87  190/ 16/ 17 1013.3    2/ 4
90 E PT ARANSAS  2350   85 86  170/ 10/ 12 1013.3    2/ 6
35 NE PT MANSFLD 2350   85     170/ 16/ 17 1011.4    4/ 5
200 E PT ISABEL  2350   86 87  190/ 10/ 12 1014.5    2/ 4
$$




USA.gov is the U.S. government's official web portal to all federal, state and local government web resources and services.